FW6455 Weather Reports


Display with metric or nautical units.
time (UTC)temp
F
wind
direction
speed
MPH
gust
MPH
rain 1hr
in
rain 24hr
in
rain mn
in
humidity
%
barometer
mb
20260901172039 95 110 2.0 4.0 0.00 0.00 0.00 49 1018.3
20260901171606 95 75 1.0 4.0 0.00 0.00 0.00 51 1018.3
20260901171041 94 320 0.0 2.0 0.00 0.00 0.00 52 1018.2
20260901170539 93 0 1.0 3.0 0.00 0.00 0.00 53 1018.4
20260901170100 94 224 1.0 3.0 0.00 0.00 0.00 52 1018.3
20260901165539 94 181 0.0 3.0 0.00 0.00 0.00 51 1018.4
20260901165040 94 127 1.0 3.0 0.00 0.00 0.00 52 1018.5
20260901164558 95 98 0.0 4.0 0.00 0.00 0.00 50 1018.5
20260901164042 95 61 2.0 4.0 0.00 0.00 0.00 51 1018.6
20260901163544 94 0 0.0 3.0 0.00 0.00 0.00 52 1018.6
20260901163112 94 0 1.0 3.0 0.00 0.00 0.00 52 1018.6
20260901162540 94 203 1.0 3.0 0.00 0.00 0.00 52 1018.7
20260901162041 94 166 0.0 2.0 0.00 0.00 0.00 53 1018.7
20260901161612 94 177 0.0 4.0 0.00 0.00 0.00 53 1018.6
20260901161040 94 204 1.0 4.0 0.00 0.00 0.00 53 1018.7
20260901160540 93 0 1.0 3.0 0.00 0.00 0.00 54 1018.7
20260901160109 94 75 1.0 3.0 0.00 0.00 0.00 53 1018.7
20260901155540 93 181 0.0 3.0 0.00 0.00 0.00 55 1018.8
20260901155039 93 0 0.0 3.0 0.00 0.00 0.00 55 1018.7
20260901154600 93 177 1.0 3.0 0.00 0.00 0.00 55 1018.8
20260901154040 93 146 1.0 3.0 0.00 0.00 0.00 54 1018.8
20260901153541 93 132 0.0 3.0 0.00 0.00 0.00 54 1018.7
20260901153108 92 176 1.0 3.0 0.00 0.00 0.00 56 1018.7
20260901152541 92 181 0.0 3.0 0.00 0.00 0.00 57 1018.7
20260901152041 91 0 1.0 3.0 0.00 0.00 0.00 58 1018.6
20260901151559 91 306 1.0 3.0 0.00 0.00 0.00 59 1018.6
20260901151042 90 281 1.0 3.0 0.00 0.00 0.00 59 1018.6
20260901150541 90 295 0.0 3.0 0.00 0.00 0.00 60 1018.6
20260901150059 89 0 0.0 3.0 0.00 0.00 0.00 61 1018.6
20260901145541 89 0 0.0 3.0 0.00 0.00 0.00 62 1018.7
20260901145043 89 0 0.0 2.0 0.00 0.00 0.00 64 1018.8
20260901144559 88 172 0.0 2.0 0.00 0.00 0.00 63 1018.8
20260901144045 88 308 0.0 1.0 0.00 0.00 0.00 64 1018.9
20260901143541 88 0 0.0 2.0 0.00 0.00 0.00 65 1018.9
20260901143104 88 271 0.0 2.0 0.00 0.00 0.00 65 1018.9
20260901142541 88 0 0.0 1.0 0.00 0.00 0.00 66 1019.0
20260901142041 87 0 0.0 0.0 0.00 0.00 0.00 67 1018.9
20260901141601 87 0 0.0 1.0 0.00 0.00 0.00 68 1018.9
20260901141039 87 194 0.0 1.0 0.00 0.00 0.00 67 1018.9
20260901140537 87 0 0.0 1.0 0.00 0.00 0.00 67 1018.9
20260901140103 87 0 0.0 1.0 0.00 0.00 0.00 68 1018.8
20260901135537 86 0 0.0 1.0 0.00 0.00 0.00 68 1018.8
20260901135036 86 0 0.0 1.0 0.00 0.00 0.00 68 1018.8
20260901134556 86 0 0.0 1.0 0.00 0.00 0.00 67 1018.9
20260901134036 86 172 0.0 1.0 0.00 0.00 0.00 67 1018.9
20260901133537 86 0 0.0 1.0 0.00 0.00 0.00 67 1018.9
20260901133102 86 0 0.0 1.0 0.00 0.00 0.00 68 1018.8
20260901132543 85 0 0.0 1.0 0.00 0.00 0.00 69 1018.9
20260901132039 84 0 0.0 1.0 0.00 0.00 0.00 71 1018.9
20260901131556 83 0 0.0 1.0 0.00 0.00 0.00 71 1018.9
20260901131037 83 0 0.0 1.0 0.00 0.00 0.00 71 1018.7
20260901130537 83 0 0.0 0.0 0.00 0.00 0.00 71 1018.8
20260901125539 81 0 0.0 0.0 0.00 0.00 0.00 74 1018.6
20260901125036 80 0 0.0 0.0 0.00 0.00 0.00 75 1018.5
20260901124609 79 0 0.0 0.0 0.00 0.00 0.00 76 1018.5
20260901124039 78 0 0.0 0.0 0.00 0.00 0.00 78 1018.5
20260901123537 77 0 0.0 0.0 0.00 0.00 0.00 79 1018.3
20260901123102 77 0 0.0 0.0 0.00 0.00 0.00 79 1018.3
20260901122539 76 0 0.0 0.0 0.00 0.00 0.00 80 1018.3
20260901122038 76 0 0.0 0.0 0.00 0.00 0.00 80 1018.2
20260901121559 76 0 0.0 0.0 0.00 0.00 0.00 80 1018.0
20260901121038 76 0 0.0 0.0 0.00 0.00 0.00 80 1018.1
20260901120539 76 0 0.0 0.0 0.00 0.00 0.00 80 1018.1
20260901120100 76 0 0.0 0.0 0.00 0.00 0.00 80 1018.0
20260901115538 76 0 0.0 0.0 0.00 0.00 0.00 79 1018.1
20260901115039 76 0 0.0 0.0 0.00 0.00 0.00 79 1017.9
20260901114638 76 0 0.0 0.0 0.00 0.00 0.00 79 1017.8
20260901114040 76 0 0.0 0.0 0.00 0.00 0.00 79 1017.8
20260901113542 76 0 0.0 0.0 0.00 0.00 0.00 79 1017.6
20260901113107 76 0 0.0 0.0 0.00 0.00 0.00 79 1017.7
20260901112539 76 0 0.0 0.0 0.00 0.00 0.00 79 1017.7
20260901112036 76 0 0.0 0.0 0.00 0.00 0.00 79 1017.7
20260901111603 76 0 0.0 0.0 0.00 0.00 0.00 78 1017.7
20260901111039 76 0 0.0 0.0 0.00 0.00 0.00 78 1017.6
20260901110540 76 0 0.0 0.0 0.00 0.00 0.00 78 1017.5
20260901105542 76 0 0.0 0.0 0.00 0.00 0.00 78 1017.6
20260901105039 76 0 0.0 0.0 0.00 0.00 0.00 78 1017.6
20260901104601 76 0 0.0 0.0 0.00 0.00 0.00 77 1017.6
20260901104039 76 0 0.0 0.0 0.00 0.00 0.00 77 1017.7
20260901103540 76 0 0.0 0.0 0.00 0.00 0.00 77 1017.6
20260901103056 76 0 0.0 0.0 0.00 0.00 0.00 77 1017.7
20260901102539 76 0 0.0 0.0 0.00 0.00 0.00 77 1017.5
20260901102041 76 0 0.0 0.0 0.00 0.00 0.00 77 1017.5
20260901101605 77 0 0.0 0.0 0.00 0.00 0.00 76 1017.5
20260901101041 77 0 0.0 0.0 0.00 0.00 0.00 76 1017.5
20260901100540 77 0 0.0 0.0 0.00 0.00 0.00 76 1017.5
20260901100106 77 0 0.0 0.0 0.00 0.00 0.00 75 1017.6
20260901095540 77 0 0.0 0.0 0.00 0.00 0.00 75 1017.5
20260901095038 77 0 0.0 0.0 0.00 0.00 0.00 75 1017.5
20260901094558 77 0 0.0 0.0 0.00 0.00 0.00 75 1017.6
20260901094039 77 0 0.0 0.0 0.00 0.00 0.00 75 1017.6
20260901093541 77 0 0.0 0.0 0.00 0.00 0.00 74 1017.6
20260901093107 77 0 0.0 0.0 0.00 0.00 0.00 74 1017.6
20260901092539 77 0 0.0 0.0 0.00 0.00 0.00 74 1017.5
20260901092041 77 0 0.0 0.0 0.00 0.00 0.00 74 1017.5
20260901091612 77 0 0.0 0.0 0.00 0.00 0.00 74 1017.5
20260901091040 77 0 0.0 0.0 0.00 0.00 0.00 74 1017.6
20260901090539 77 0 0.0 0.0 0.00 0.00 0.00 73 1017.6
20260901090100 78 0 0.0 0.0 0.00 0.00 0.00 73 1017.5
20260901085539 78 0 0.0 0.0 0.00 0.00 0.00 73 1017.5
20260901085039 78 0 0.0 0.0 0.00 0.00 0.00 72 1017.4
20260901084557 78 0 0.0 0.0 0.00 0.00 0.00 73 1017.4
20260901084040 78 0 0.0 0.0 0.00 0.00 0.00 72 1017.5
20260901083539 78 0 0.0 0.0 0.00 0.00 0.00 72 1017.4
20260901083101 78 0 0.0 0.0 0.00 0.00 0.00 72 1017.3
20260901082541 78 0 0.0 0.0 0.00 0.00 0.00 71 1017.2
20260901082038 78 0 0.0 0.0 0.00 0.00 0.00 71 1017.3
20260901081600 78 0 0.0 0.0 0.00 0.00 0.00 72 1017.4
20260901081039 78 0 0.0 0.0 0.00 0.00 0.00 71 1017.2
20260901080539 79 0 0.0 0.0 0.00 0.00 0.00 70 1017.3
20260901080106 79 0 0.0 0.0 0.00 0.00 0.00 70 1017.4
20260901075540 79 0 0.0 0.0 0.00 0.00 0.00 69 1017.4
20260901075039 79 0 0.0 0.0 0.00 0.00 0.00 69 1017.4
20260901074606 79 0 0.0 0.0 0.00 0.00 0.00 69 1017.4
20260901074039 79 0 0.0 0.0 0.00 0.00 0.00 68 1017.4
20260901073539 79 0 0.0 0.0 0.00 0.00 0.00 69 1017.3
20260901073104 79 0 0.0 0.0 0.00 0.00 0.00 68 1017.4
20260901072539 79 0 0.0 0.0 0.00 0.00 0.00 68 1017.4
20260901072040 79 0 0.0 0.0 0.00 0.00 0.00 68 1017.3
20260901071601 80 0 0.0 0.0 0.00 0.00 0.00 67 1017.3
20260901071039 80 0 0.0 0.0 0.00 0.00 0.00 67 1017.3
20260901070538 80 0 0.0 0.0 0.00 0.00 0.00 67 1017.2
20260901070113 80 0 0.0 0.0 0.00 0.00 0.00 66 1017.3
20260901065541 80 0 0.0 0.0 0.00 0.00 0.00 66 1017.1
20260901065039 80 0 0.0 0.0 0.00 0.00 0.00 66 1017.2
20260901064604 80 0 0.0 0.0 0.00 0.00 0.00 66 1017.2
20260901064039 80 0 0.0 0.0 0.00 0.00 0.00 65 1017.0
20260901063538 80 0 0.0 0.0 0.00 0.00 0.00 65 1017.1
20260901063104 80 0 0.0 0.0 0.00 0.00 0.00 65 1017.0
20260901062542 80 0 0.0 0.0 0.00 0.00 0.00 64 1017.0
20260901062038 81 0 0.0 0.0 0.00 0.00 0.00 64 1016.9
20260901061608 81 0 0.0 0.0 0.00 0.00 0.00 63 1016.8
20260901061042 81 0 0.0 0.0 0.00 0.00 0.00 63 1016.8
20260901060539 81 0 0.0 0.0 0.00 0.00 0.00 63 1016.7
20260901060100 81 0 0.0 0.0 0.00 0.00 0.00 62 1016.8
20260901055542 82 0 0.0 0.0 0.00 0.00 0.00 61 1016.8
20260901055040 82 0 0.0 1.0 0.00 0.00 0.00 61 1016.7
20260901054601 82 0 0.0 1.0 0.00 0.00 0.00 61 1016.5
20260901054040 82 0 0.0 1.0 0.00 0.00 0.00 60 1016.4
20260901053540 82 0 0.0 0.0 0.00 0.00 0.00 61 1016.4
20260901053114 82 0 0.0 1.0 0.00 0.00 0.00 60 1016.4
20260901052540 82 0 0.0 1.0 0.00 0.00 0.00 60 1016.4
20260901052039 82 0 0.0 1.0 0.00 0.00 0.00 60 1016.2
20260901051601 82 0 0.0 1.0 0.00 0.00 0.00 60 1016.3
20260901051040 82 106 0.0 1.0 0.00 0.00 0.00 60 1016.3
20260901050542 82 0 0.0 1.0 0.00 0.00 0.00 60 1016.2
20260901050108 82 0 0.0 1.0 0.00 0.00 0.00 59 1016.3
20260901045540 82 0 0.0 0.0 0.00 0.00 0.00 59 1016.2
20260901045039 82 0 0.0 0.0 0.00 0.00 0.00 58 1016.1
20260901044600 82 0 0.0 0.0 0.00 0.00 0.00 59 1016.1
20260901044040 82 0 0.0 0.0 0.00 0.00 0.00 59 1016.0
20260901043539 82 0 0.0 0.0 0.00 0.00 0.00 58 1016.0
20260901043107 82 0 0.0 0.0 0.00 0.00 0.00 59 1015.9
20260901042541 82 0 0.0 0.0 0.00 0.00 0.00 59 1015.8
20260901042039 82 0 0.0 0.0 0.00 0.00 0.00 59 1015.9
20260901041604 82 0 0.0 0.0 0.00 0.00 0.00 58 1015.9
20260901041043 82 0 0.0 0.0 0.00 0.00 0.00 58 1015.9
20260901040540 82 0 0.0 0.0 0.00 0.00 0.00 58 1015.9
20260901035539 82 0 0.0 0.0 0.00 0.00 0.00 59 1015.9
20260901035039 82 0 0.0 0.0 0.00 0.00 0.00 58 1015.9
20260901034607 82 0 0.0 0.0 0.00 0.00 0.00 58 1015.9
20260901034040 83 0 0.0 0.0 0.00 0.00 0.00 58 1015.9
20260901033540 83 0 0.0 0.0 0.00 0.00 0.00 58 1015.9
20260901033119 83 0 0.0 0.0 0.00 0.00 0.00 57 1015.9
20260901032539 83 0 0.0 0.0 0.00 0.00 0.00 57 1015.8
20260901032041 83 0 0.0 0.0 0.00 0.00 0.00 57 1015.8
20260901031608 83 0 0.0 0.0 0.00 0.00 0.00 56 1015.8
20260901031039 84 0 0.0 0.0 0.00 0.00 0.00 55 1015.7
20260901030538 84 0 0.0 0.0 0.00 0.00 0.00 56 1015.8
20260901030107 84 0 0.0 0.0 0.00 0.00 0.00 55 1015.8
20260901025540 84 0 0.0 0.0 0.00 0.00 0.00 55 1015.6
20260901025040 84 0 0.0 0.0 0.00 0.00 0.00 54 1015.6
20260901024604 85 0 0.0 0.0 0.00 0.00 0.00 54 1015.6
20260901024039 85 0 0.0 0.0 0.00 0.00 0.00 54 1015.6
20260901023540 85 0 0.0 0.0 0.00 0.00 0.00 54 1015.5
20260901023101 85 0 0.0 0.0 0.00 0.00 0.00 53 1015.4
20260901022540 85 0 0.0 0.0 0.00 0.00 0.00 52 1015.3
20260901022037 86 0 0.0 0.0 0.00 0.00 0.00 52 1015.3
20260901021604 86 0 0.0 0.0 0.00 0.00 0.00 52 1015.3
20260901021037 87 0 0.0 0.0 0.00 0.00 0.00 51 1015.3
20260901020542 87 0 0.0 0.0 0.00 0.00 0.00 51 1015.2
20260901020056 88 0 0.0 0.0 0.00 0.00 0.00 50 1015.1
20260901015540 88 0 0.0 0.0 0.00 0.00 0.00 49 1015.1
20260901015040 88 0 0.0 0.0 0.00 0.00 0.00 48 1015.1
20260901014605 89 0 0.0 0.0 0.00 0.00 0.00 48 1015.0
20260901014040 89 0 0.0 0.0 0.00 0.00 0.00 47 1015.0
20260901013540 89 0 0.0 0.0 0.00 0.00 0.00 46 1015.1
20260901013113 90 0 0.0 0.0 0.00 0.00 0.00 46 1015.0
20260901012540 91 0 0.0 1.0 0.00 0.00 0.00 44 1015.0
20260901012040 91 0 0.0 1.0 0.00 0.00 0.00 44 1015.1
20260901011621 91 0 0.0 1.0 0.00 0.00 0.00 43 1015.0
20260901011040 92 0 0.0 0.0 0.00 0.00 0.00 43 1015.0
20260901010543 92 0 0.0 0.0 0.00 0.00 0.00 42 1015.0
20260901010114 93 0 0.0 0.0 0.00 0.00 0.00 41 1015.1
20260901005538 93 0 0.0 0.0 0.00 0.00 0.00 41 1015.0
20260901005044 93 0 0.0 1.0 0.00 0.00 0.00 40 1015.0
20260901004602 94 0 0.0 1.0 0.00 0.00 0.00 39 1014.9
20260901004040 94 0 0.0 1.0 0.00 0.00 0.00 38 1014.9
20260901003540 95 0 0.0 1.0 0.00 0.00 0.00 38 1014.9
20260901003104 95 0 0.0 1.0 0.00 0.00 0.00 38 1014.8
20260901002542 95 0 0.0 1.0 0.00 0.00 0.00 37 1014.8
20260901002040 95 0 0.0 1.0 0.00 0.00 0.00 37 1014.9
20260901001606 96 0 0.0 3.0 0.00 0.00 0.00 37 1014.8
20260901001038 96 0 0.0 3.0 0.00 0.00 0.00 37 1014.9
20260901000540 96 191 0.0 2.0 0.00 0.00 0.00 36 1014.9
20260901000106 96 0 0.0 5.0 0.00 0.00 0.00 36 1014.9
20260831235540 97 118 1.0 5.0 0.00 0.00 0.00 35 1014.9
20260831235042 97 0 1.0 5.0 0.00 0.00 0.00 36 1014.9
20260831234608 97 0 0.0 3.0 0.00 0.00 0.00 36 1014.9
20260831234039 97 122 0.0 3.0 0.00 0.00 0.00 36 1015.0
20260831233541 97 186 0.0 2.0 0.00 0.00 0.00 36 1014.9
20260831233106 97 138 0.0 2.0 0.00 0.00 0.00 36 1014.9
20260831232540 97 107 1.0 3.0 0.00 0.00 0.00 36 1014.9
20260831232040 98 163 0.0 3.0 0.00 0.00 0.00 36 1014.9
20260831231600 98 0 0.0 3.0 0.00 0.00 0.00 35 1014.9
20260831231037 98 79 0.0 4.0 0.00 0.00 0.00 35 1014.8
20260831230543 98 0 1.0 7.0 0.00 0.00 0.00 35 1014.8
20260831230114 98 115 0.0 7.0 0.00 0.00 0.00 36 1014.9
20260831225539 98 87 0.0 4.0 0.00 0.00 0.00 37 1015.0
20260831225041 97 0 1.0 3.0 0.00 0.00 0.00 37 1015.0
20260831224603 98 113 1.0 3.0 0.00 0.00 0.00 37 1015.1
20260831224045 98 182 0.0 8.0 0.00 0.00 0.00 36 1015.1
20260831223543 99 194 3.0 8.0 0.00 0.00 0.00 36 1015.2
20260831223106 99 60 2.0 6.0 0.00 0.00 0.00 35 1015.2
20260831222541 99 77 2.0 5.0 0.00 0.00 0.00 35 1015.1
20260831222038 99 89 0.0 5.0 0.00 0.00 0.00 35 1015.1
20260831221608 99 0 1.0 5.0 0.00 0.00 0.00 35 1015.1
20260831221040 99 77 1.0 4.0 0.00 0.00 0.00 35 1015.2
20260831220540 99 205 1.0 5.0 0.00 0.00 0.00 35 1015.3
20260831220116 99 103 1.0 5.0 0.00 0.00 0.00 35 1015.3
20260831215540 99 143 0.0 3.0 0.00 0.00 0.00 36 1015.3
20260831215040 99 85 0.0 3.0 0.00 0.00 0.00 36 1015.3
20260831214611 98 194 0.0 4.0 0.00 0.00 0.00 36 1015.4
20260831214039 98 184 1.0 6.0 0.00 0.00 0.00 36 1015.4
20260831213539 98 60 2.0 6.0 0.00 0.00 0.00 36 1015.5
20260831213057 98 103 2.0 9.0 0.00 0.00 0.00 36 1015.6
20260831212540 99 73 2.0 9.0 0.00 0.00 0.00 36 1015.5
20260831212037 99 110 2.0 9.0 0.00 0.00 0.00 36 1015.7
20260831211610 99 120 1.0 6.0 0.00 0.00 0.00 36 1015.7
20260831211037 99 71 2.0 6.0 0.00 0.00 0.00 35 1015.7
20260831210539 99 221 1.0 5.0 0.00 0.00 0.00 36 1015.8
20260831210103 99 106 1.0 6.0 0.00 0.00 0.00 36 1015.8
20260831205543 98 120 1.0 6.0 0.00 0.00 0.00 36 1015.9
20260831205040 98 203 2.0 7.0 0.00 0.00 0.00 37 1016.0
20260831204603 98 129 2.0 7.0 0.00 0.00 0.00 38 1016.1
20260831204040 98 117 1.0 6.0 0.00 0.00 0.00 38 1016.2
20260831203537 98 167 2.0 6.0 0.00 0.00 0.00 38 1016.2
20260831203108 98 194 2.0 5.0 0.00 0.00 0.00 38 1016.3
20260831202537 99 123 0.0 5.0 0.00 0.00 0.00 37 1016.3
20260831202041 100 101 2.0 5.0 0.00 0.00 0.00 36 1016.3
20260831201608 100 0 1.0 3.0 0.00 0.00 0.00 35 1016.2
20260831201040 100 227 1.0 4.0 0.00 0.00 0.00 35 1016.4
20260831200537 100 185 1.0 5.0 0.00 0.00 0.00 35 1016.4
20260831200111 100 103 1.0 5.0 0.00 0.00 0.00 35 1016.5
20260831195539 99 110 1.0 5.0 0.00 0.00 0.00 36 1016.7
20260831195040 100 191 2.0 5.0 0.00 0.00 0.00 35 1016.6
20260831194613 100 176 2.0 5.0 0.00 0.00 0.00 37 1016.7
20260831194039 100 122 1.0 3.0 0.00 0.00 0.00 37 1016.7
20260831193540 100 179 1.0 3.0 0.00 0.00 0.00 36 1016.9
20260831193106 101 99 1.0 6.0 0.00 0.00 0.00 37 1017.1
20260831192537 100 154 1.0 6.0 0.00 0.00 0.00 37 1017.1
20260831192041 99 126 2.0 6.0 0.00 0.00 0.00 38 1017.2
20260831191605 99 115 1.0 7.0 0.00 0.00 0.00 38 1017.2
20260831191042 99 189 2.0 7.0 0.00 0.00 0.00 40 1017.2
20260831190540 99 84 2.0 6.0 0.00 0.00 0.00 38 1017.3
20260831190115 99 181 2.0 7.0 0.00 0.00 0.00 40 1017.3
20260831185539 99 188 2.0 7.0 0.00 0.00 0.00 40 1017.3
20260831185038 99 203 0.0 4.0 0.00 0.00 0.00 39 1017.4
20260831184559 99 210 2.0 4.0 0.00 0.00 0.00 39 1017.3
20260831184039 98 214 1.0 4.0 0.00 0.00 0.00 41 1017.4
20260831183541 97 176 1.0 3.0 0.00 0.00 0.00 40 1017.6
20260831183118 98 117 1.0 3.0 0.00 0.00 0.00 40 1017.5
20260831182541 99 201 1.0 3.0 0.00 0.00 0.00 41 1017.7
20260831182037 98 134 1.0 3.0 0.00 0.00 0.00 40 1017.7
20260831181606 98 193 0.0 3.0 0.00 0.00 0.00 43 1017.7
20260831181040 98 148 0.0 4.0 0.00 0.00 0.00 42 1017.9
20260831180539 98 199 1.0 4.0 0.00 0.00 0.00 41 1018.0
20260831180110 98 92 0.0 6.0 0.00 0.00 0.00 43 1018.0
20260831175537 98 160 1.0 6.0 0.00 0.00 0.00 44 1018.2
20260831175041 98 215 1.0 4.0 0.00 0.00 0.00 44 1018.2
20260831174604 97 148 1.0 4.0 0.00 0.00 0.00 44 1018.3
20260831174040 97 96 1.0 4.0 0.00 0.00 0.00 43 1018.3
20260831173541 97 184 1.0 5.0 0.00 0.00 0.00 44 1018.5
20260831173100 96 162 2.0 5.0 0.00 0.00 0.00 46 1018.5
20260831172539 97 200 1.0 3.0 0.00 0.00 0.00 46 1018.5